Location: Unspecified
(40.7945°N, 111.1337°W)
Time: 21:42:39
(UTC-06:00)

Vanguard 1 - Pass Details

Date: 23 June 2019
Orbit: 653 x 3830 km, 34.3° (Epoch: 22 July)

Event Time Altitude Azimuth Distance (km) Brightness Sun altitude
Exits shadow 04:22:54 12° 240° (WSW) 6,149 13.5 -13.9°
Maximum altitude 04:39:55 58° 169° (S) 2,604 12.0 -11.7°
Drops below altitude 10° 04:49:58 10° 93° (E) 3,741 13.7 -10.3°
Sets 04:52:26 0° 89° (E) 4,422 14.2 -10.0°
